Time,TemperatureF,DewpointF,PressureIn,WindDirection,WindDirectionDegrees,WindSpeedMPH,WindSpeedGustMPH,Humidity,HourlyPrecipIn,Conditions,Clouds,dailyrainin,SoftwareType,DateUTC
2013-04-18 00:02:00,73.7,66.9,29.76,South,174,9.0,10.0,79,0.00,,,0.00,WUHU216DAVISVP2,2013-04-18 05:02:00,
2013-04-18 00:07:00,73.9,66.7,29.76,SSW,200,9.0,14.0,78,0.00,,,0.00,WUHU216DAVISVP2,2013-04-18 05:07:00,
2013-04-18 00:12:00,74.2,67.0,29.76,South,188,14.0,15.0,78,0.00,,,0.00,WUHU216DAVISVP2,2013-04-18 05:12:00,
2013-04-18 00:17:00,74.6,67.0,29.76,South,189,10.0,17.0,77,0.00,,,0.00,WUHU216DAVISVP2,2013-04-18 05:17:00,
2013-04-18 00:22:00,74.6,66.7,29.76,South,189,10.0,17.0,76,0.00,,,0.00,WUHU216DAVISVP2,2013-04-18 05:22:00,
2013-04-18 00:27:00,74.7,66.8,29.75,South,175,11.0,18.0,76,0.00,,,0.00,WUHU216DAVISVP2,2013-04-18 05:27:00,
2013-04-18 00:32:00,74.7,66.8,29.75,SSE,153,8.0,18.0,76,0.00,,,0.00,WUHU216DAVISVP2,2013-04-18 05:32:00,
2013-04-18 00:37:00,74.6,66.7,29.75,South,172,10.0,15.0,76,0.00,,,0.00,WUHU216DAVISVP2,2013-04-18 05:37:00,
2013-04-18 00:42:00,74.5,66.6,29.75,SSW,207,9.0,17.0,76,0.00,,,0.00,WUHU216DAVISVP2,2013-04-18 05:42:00,
2013-04-18 00:47:00,74.5,66.6,29.75,South,187,11.0,17.0,76,0.00,,,0.00,WUHU216DAVISVP2,2013-04-18 05:47:00,
2013-04-18 00:52:00,74.3,66.4,29.75,South,185,12.0,16.0,76,0.00,,,0.00,WUHU216DAVISVP2,2013-04-18 05:52:00,
2013-04-18 00:57:00,74.3,66.4,29.75,South,185,10.0,16.0,76,0.00,,,0.00,WUHU216DAVISVP2,2013-04-18 05:57:00,
2013-04-18 01:02:00,74.2,66.3,29.75,SSW,205,11.0,18.0,76,0.00,,,0.00,WUHU216DAVISVP2,2013-04-18 06:02:00,
2013-04-18 01:07:00,74.2,66.3,29.74,SSW,196,8.0,18.0,76,0.00,,,0.00,WUHU216DAVISVP2,2013-04-18 06:07:00,
2013-04-18 01:12:00,74.2,66.3,29.74,SSW,211,9.0,16.0,76,0.00,,,0.00,WUHU216DAVISVP2,2013-04-18 06:12:00,
2013-04-18 01:17:00,74.2,66.3,29.74,SSE,165,13.0,16.0,76,0.00,,,0.00,WUHU216DAVISVP2,2013-04-18 06:17:00,
2013-04-18 01:22:00,74.3,66.4,29.74,South,188,12.0,16.0,76,0.00,,,0.00,WUHU216DAVISVP2,2013-04-18 06:22:00,
2013-04-18 01:27:00,74.2,66.3,29.74,SSW,203,13.0,16.0,76,0.00,,,0.00,WUHU216DAVISVP2,2013-04-18 06:27:00,
2013-04-18 01:32:00,74.2,66.3,29.73,SW,224,9.0,16.0,76,0.00,,,0.00,WUHU216DAVISVP2,2013-04-18 06:32:00,
2013-04-18 01:37:00,74.2,66.7,29.73,SSW,200,8.0,16.0,77,0.00,,,0.00,WUHU216DAVISVP2,2013-04-18 06:37:00,
2013-04-18 01:42:00,74.2,66.3,29.72,South,171,12.0,18.0,76,0.00,,,0.00,WUHU216DAVISVP2,2013-04-18 06:42:00,
2013-04-18 01:47:00,74.3,66.4,29.72,South,174,10.0,23.0,76,0.00,,,0.00,WUHU216DAVISVP2,2013-04-18 06:47:00,
2013-04-18 01:52:00,74.2,66.3,29.72,SSW,213,16.0,23.0,76,0.00,,,0.00,WUHU216DAVISVP2,2013-04-18 06:52:00,
2013-04-18 01:57:00,74.2,66.3,29.72,South,182,13.0,17.0,76,0.00,,,0.00,WUHU216DAVISVP2,2013-04-18 06:57:00,
2013-04-18 02:02:00,74.2,66.7,29.71,SSW,205,8.0,17.0,77,0.00,,,0.00,WUHU216DAVISVP2,2013-04-18 07:02:00,
2013-04-18 02:07:00,74.3,66.8,29.71,SSW,207,9.0,17.0,77,0.00,,,0.00,WUHU216DAVISVP2,2013-04-18 07:07:00,
2013-04-18 02:12:00,74.2,66.7,29.71,South,184,8.0,14.0,77,0.00,,,0.00,WUHU216DAVISVP2,2013-04-18 07:12:00,
2013-04-18 02:17:00,74.4,66.5,29.71,South,175,14.0,22.0,76,0.00,,,0.00,WUHU216DAVISVP2,2013-04-18 07:17:00,
2013-04-18 02:22:00,74.5,66.6,29.70,South,187,9.0,22.0,76,0.00,,,0.00,WUHU216DAVISVP2,2013-04-18 07:22:00,
2013-04-18 02:27:00,74.6,66.7,29.70,SW,224,11.0,19.0,76,0.00,,,0.00,WUHU216DAVISVP2,2013-04-18 07:27:00,
2013-04-18 02:32:00,74.9,67.0,29.70,South,186,15.0,24.0,76,0.00,,,0.00,WUHU216DAVISVP2,2013-04-18 07:32:00,
2013-04-18 02:37:00,75.1,66.8,29.69,SSW,200,15.0,25.0,75,0.00,,,0.00,WUHU216DAVISVP2,2013-04-18 07:37:00,
2013-04-18 02:42:00,75.1,66.8,29.69,SW,222,13.0,25.0,75,0.00,,,0.00,WUHU216DAVISVP2,2013-04-18 07:42:00,
2013-04-18 02:47:00,75.2,66.9,29.69,South,174,16.0,21.0,75,0.00,,,0.00,WUHU216DAVISVP2,2013-04-18 07:47:00,
2013-04-18 02:52:00,75.2,66.9,29.69,SSW,204,15.0,22.0,75,0.00,,,0.00,WUHU216DAVISVP2,2013-04-18 07:52:00,
2013-04-18 02:57:00,75.2,66.9,29.69,SSW,195,10.0,24.0,75,0.00,,,0.00,WUHU216DAVISVP2,2013-04-18 07:57:00,
2013-04-18 03:02:00,75.2,66.9,29.69,SSW,198,18.0,24.0,75,0.00,,,0.00,WUHU216DAVISVP2,2013-04-18 08:02:00,
2013-04-18 03:07:00,75.4,67.1,29.69,SSW,201,24.0,26.0,75,0.00,,,0.00,WUHU216DAVISVP2,2013-04-18 08:07:00,
2013-04-18 03:12:00,75.4,67.1,29.68,SW,214,19.0,26.0,75,0.00,,,0.00,WUHU216DAVISVP2,2013-04-18 08:12:00,
2013-04-18 03:17:00,75.3,67.0,29.69,SW,225,20.0,21.0,75,0.00,,,0.00,WUHU216DAVISVP2,2013-04-18 08:17:00,
2013-04-18 03:22:00,75.3,67.0,29.68,South,191,16.0,23.0,75,0.00,,,0.00,WUHU216DAVISVP2,2013-04-18 08:22:00,
2013-04-18 03:27:00,75.2,66.9,29.68,SSW,194,14.0,27.0,75,0.00,,,0.00,WUHU216DAVISVP2,2013-04-18 08:27:00,
2013-04-18 03:32:00,75.1,66.8,29.68,SSW,195,22.0,27.0,75,0.00,,,0.00,WUHU216DAVISVP2,2013-04-18 08:32:00,
2013-04-18 03:37:00,75.1,67.2,29.67,SSW,195,23.0,27.0,76,0.00,,,0.00,WUHU216DAVISVP2,2013-04-18 08:37:00,
2013-04-18 03:42:00,75.0,67.1,29.67,South,188,15.0,27.0,76,0.00,,,0.00,WUHU216DAVISVP2,2013-04-18 08:42:00,
2013-04-18 03:47:00,74.9,67.0,29.67,South,188,11.0,27.0,76,0.00,,,0.00,WUHU216DAVISVP2,2013-04-18 08:47:00,
2013-04-18 03:52:00,74.8,66.9,29.67,South,181,19.0,27.0,76,0.00,,,0.00,WUHU216DAVISVP2,2013-04-18 08:52:00,
2013-04-18 03:57:00,74.8,66.9,29.67,SE,141,14.0,27.0,76,0.00,,,0.00,WUHU216DAVISVP2,2013-04-18 08:57:00,
2013-04-18 04:02:00,74.6,67.0,29.67,SSW,195,15.0,24.0,77,0.00,,,0.00,WUHU216DAVISVP2,2013-04-18 09:02:00,
2013-04-18 04:07:00,74.5,66.9,29.67,SSW,193,22.0,27.0,77,0.00,,,0.00,WUHU216DAVISVP2,2013-04-18 09:07:00,
2013-04-18 04:12:00,74.5,66.9,29.67,SSW,203,19.0,27.0,77,0.00,,,0.00,WUHU216DAVISVP2,2013-04-18 09:12:00,
2013-04-18 04:17:00,74.4,66.9,29.67,SSW,194,20.0,27.0,77,0.00,,,0.00,WUHU216DAVISVP2,2013-04-18 09:17:00,
2013-04-18 04:22:00,74.4,66.9,29.67,SSW,203,18.0,27.0,77,0.00,,,0.00,WUHU216DAVISVP2,2013-04-18 09:22:00,
2013-04-18 04:27:00,74.4,66.9,29.67,SSW,195,16.0,25.0,77,0.00,,,0.00,WUHU216DAVISVP2,2013-04-18 09:27:00,
2013-04-18 04:32:00,74.3,66.8,29.67,SSW,195,19.0,25.0,77,0.00,,,0.00,WUHU216DAVISVP2,2013-04-18 09:32:00,
2013-04-18 04:37:00,74.3,66.8,29.67,SW,214,15.0,28.0,77,0.00,,,0.00,WUHU216DAVISVP2,2013-04-18 09:37:00,
2013-04-18 04:42:00,74.3,66.8,29.67,SW,236,17.0,28.0,77,0.00,,,0.00,WUHU216DAVISVP2,2013-04-18 09:42:00,
2013-04-18 04:47:00,74.4,66.9,29.67,SSW,211,14.0,26.0,77,0.00,,,0.00,WUHU216DAVISVP2,2013-04-18 09:47:00,
2013-04-18 04:52:00,74.4,66.9,29.67,SSW,199,17.0,31.0,77,0.00,,,0.00,WUHU216DAVISVP2,2013-04-18 09:52:00,
2013-04-18 04:57:00,74.4,66.9,29.67,SSW,206,24.0,31.0,77,0.00,,,0.00,WUHU216DAVISVP2,2013-04-18 09:57:00,
2013-04-18 05:02:00,74.3,66.8,29.67,SSE,160,17.0,25.0,77,0.00,,,0.00,WUHU216DAVISVP2,2013-04-18 10:02:00,
2013-04-18 05:07:00,74.2,67.0,29.66,SSE,150,16.0,23.0,78,0.00,,,0.00,WUHU216DAVISVP2,2013-04-18 10:07:00,
2013-04-18 05:12:00,74.1,66.9,29.66,SSW,212,14.0,27.0,78,0.00,,,0.00,WUHU216DAVISVP2,2013-04-18 10:12:00,
2013-04-18 05:17:00,74.0,66.8,29.66,SSW,192,21.0,27.0,78,0.00,,,0.00,WUHU216DAVISVP2,2013-04-18 10:17:00,
2013-04-18 05:22:00,73.9,66.7,29.66,SSW,212,19.0,25.0,78,0.00,,,0.00,WUHU216DAVISVP2,2013-04-18 10:22:00,
2013-04-18 05:27:00,73.9,66.7,29.66,SSW,204,23.0,25.0,78,0.00,,,0.00,WUHU216DAVISVP2,2013-04-18 10:27:00,
2013-04-18 05:32:00,73.7,66.5,29.66,SSW,199,16.0,24.0,78,0.00,,,0.00,WUHU216DAVISVP2,2013-04-18 10:32:00,
2013-04-18 05:37:00,73.7,66.9,29.66,SSW,193,17.0,27.0,79,0.00,,,0.00,WUHU216DAVISVP2,2013-04-18 10:37:00,
2013-04-18 05:42:00,73.8,66.6,29.66,SSW,193,9.0,27.0,78,0.00,,,0.00,WUHU216DAVISVP2,2013-04-18 10:42:00,
2013-04-18 05:47:00,73.7,66.9,29.66,SSW,208,19.0,26.0,79,0.00,,,0.00,WUHU216DAVISVP2,2013-04-18 10:47:00,
2013-04-18 05:52:00,73.6,66.8,29.66,SSE,163,15.0,23.0,79,0.00,,,0.00,WUHU216DAVISVP2,2013-04-18 10:52:00,
2013-04-18 05:57:00,73.6,66.8,29.66,SSW,212,32.0,32.0,79,0.00,,,0.00,WUHU216DAVISVP2,2013-04-18 10:57:00,
2013-04-18 06:02:00,73.5,66.7,29.66,SSE,164,20.0,32.0,79,0.00,,,0.00,WUHU216DAVISVP2,2013-04-18 11:02:00,
2013-04-18 06:07:00,73.6,66.8,29.65,SSW,207,14.0,24.0,79,0.00,,,0.00,WUHU216DAVISVP2,2013-04-18 11:07:00,
2013-04-18 06:12:00,73.6,66.4,29.65,SSW,211,23.0,27.0,78,0.00,,,0.00,WUHU216DAVISVP2,2013-04-18 11:12:00,
2013-04-18 06:17:00,73.7,66.5,29.64,SSE,162,22.0,30.0,78,0.00,,,0.00,WUHU216DAVISVP2,2013-04-18 11:17:00,
2013-04-18 06:22:00,73.7,66.5,29.64,South,180,18.0,31.0,78,0.00,,,0.00,WUHU216DAVISVP2,2013-04-18 11:22:00,
2013-04-18 06:27:00,73.6,66.4,29.65,South,181,34.0,34.0,78,0.00,,,0.00,WUHU216DAVISVP2,2013-04-18 11:27:00,
2013-04-18 06:32:00,73.7,66.5,29.65,South,175,12.0,34.0,78,0.00,,,0.00,WUHU216DAVISVP2,2013-04-18 11:32:00,
2013-04-18 06:37:00,73.7,66.5,29.65,SSW,205,22.0,31.0,78,0.00,,,0.00,WUHU216DAVISVP2,2013-04-18 11:37:00,
2013-04-18 06:42:00,73.6,66.4,29.65,SSW,208,25.0,27.0,78,0.00,,,0.00,WUHU216DAVISVP2,2013-04-18 11:42:00,
2013-04-18 06:47:00,73.7,66.5,29.65,South,186,26.0,30.0,78,0.00,,,0.00,WUHU216DAVISVP2,2013-04-18 11:47:00,
2013-04-18 06:52:00,73.6,66.4,29.65,South,181,18.0,31.0,78,0.00,,,0.00,WUHU216DAVISVP2,2013-04-18 11:52:00,
2013-04-18 06:57:00,73.6,66.3,29.66,SSW,202,20.0,31.0,78,0.00,,,0.00,WUHU216DAVISVP2,2013-04-18 11:57:00,
2013-04-18 07:02:00,73.7,66.0,29.66,SW,215,22.0,34.0,77,0.00,,,0.00,WUHU216DAVISVP2,2013-04-18 12:02:00,
2013-04-18 07:07:00,73.8,66.3,29.65,SSW,205,22.0,34.0,77,0.00,,,0.00,WUHU216DAVISVP2,2013-04-18 12:07:00,
2013-04-18 07:12:00,73.7,66.2,29.66,SSW,200,17.0,34.0,77,0.00,,,0.00,WUHU216DAVISVP2,2013-04-18 12:12:00,
2013-04-18 07:17:00,73.7,66.5,29.66,South,191,14.0,34.0,78,0.00,,,0.00,WUHU216DAVISVP2,2013-04-18 12:17:00,
2013-04-18 07:22:00,73.6,66.1,29.67,SSW,209,18.0,32.0,77,0.00,,,0.00,WUHU216DAVISVP2,2013-04-18 12:22:00,
2013-04-18 07:27:00,73.6,66.1,29.67,South,189,18.0,32.0,77,0.00,,,0.00,WUHU216DAVISVP2,2013-04-18 12:27:00,
2013-04-18 07:32:00,73.7,66.2,29.67,South,182,18.0,27.0,77,0.00,,,0.00,WUHU216DAVISVP2,2013-04-18 12:32:00,
2013-04-18 07:37:00,73.7,66.2,29.67,South,187,18.0,28.0,77,0.00,,,0.00,WUHU216DAVISVP2,2013-04-18 12:37:00,
2013-04-18 07:42:00,73.6,66.1,29.66,South,176,13.0,28.0,77,0.00,,,0.00,WUHU216DAVISVP2,2013-04-18 12:42:00,
2013-04-18 07:47:00,73.6,66.1,29.67,SSW,212,19.0,29.0,77,0.00,,,0.00,WUHU216DAVISVP2,2013-04-18 12:47:00,
2013-04-18 07:52:00,73.5,66.0,29.67,South,176,19.0,29.0,77,0.00,,,0.00,WUHU216DAVISVP2,2013-04-18 12:52:00,
2013-04-18 07:57:00,73.6,66.1,29.67,South,191,22.0,31.0,77,0.00,,,0.00,WUHU216DAVISVP2,2013-04-18 12:57:00,
2013-04-18 08:02:00,73.5,66.0,29.67,SSW,206,20.0,31.0,77,0.00,,,0.00,WUHU216DAVISVP2,2013-04-18 13:02:00,
2013-04-18 08:07:00,73.5,66.0,29.67,SSW,205,22.0,30.0,77,0.00,,,0.00,WUHU216DAVISVP2,2013-04-18 13:07:00,
2013-04-18 08:12:00,73.6,66.1,29.67,South,186,16.0,27.0,77,0.00,,,0.00,WUHU216DAVISVP2,2013-04-18 13:12:00,
2013-04-18 08:17:00,73.8,65.9,29.67,SSW,193,15.0,29.0,76,0.00,,,0.00,WUHU216DAVISVP2,2013-04-18 13:17:00,
2013-04-18 08:22:00,74.0,65.7,29.66,SSW,202,16.0,33.0,75,0.00,,,0.00,WUHU216DAVISVP2,2013-04-18 13:22:00,
2013-04-18 08:27:00,74.3,66.0,29.66,SSW,210,26.0,33.0,75,0.00,,,0.00,WUHU216DAVISVP2,2013-04-18 13:27:00,
2013-04-18 08:32:00,74.3,66.0,29.67,SW,217,17.0,28.0,75,0.00,,,0.00,WUHU216DAVISVP2,2013-04-18 13:32:00,
2013-04-18 08:37:00,74.3,66.0,29.67,SSW,197,21.0,32.0,75,0.00,,,0.00,WUHU216DAVISVP2,2013-04-18 13:37:00,
2013-04-18 08:42:00,74.2,65.9,29.67,SSE,167,22.0,32.0,75,0.00,,,0.00,WUHU216DAVISVP2,2013-04-18 13:42:00,
2013-04-18 08:47:00,74.3,66.0,29.67,South,188,17.0,32.0,75,0.00,,,0.00,WUHU216DAVISVP2,2013-04-18 13:47:00,
2013-04-18 08:52:00,74.2,65.5,29.67,South,176,17.0,32.0,74,0.00,,,0.00,WUHU216DAVISVP2,2013-04-18 13:52:00,
2013-04-18 08:57:00,74.1,65.4,29.67,South,181,27.0,31.0,74,0.00,,,0.00,WUHU216DAVISVP2,2013-04-18 13:57:00,
2013-04-18 09:02:00,74.0,65.7,29.67,South,191,19.0,27.0,75,0.00,,,0.00,WUHU216DAVISVP2,2013-04-18 14:02:00,
2013-04-18 09:07:00,73.9,66.0,29.67,SW,219,18.0,31.0,76,0.00,,,0.00,WUHU216DAVISVP2,2013-04-18 14:07:00,
2013-04-18 09:12:00,73.7,65.8,29.67,South,183,16.0,31.0,76,0.00,,,0.00,WUHU216DAVISVP2,2013-04-18 14:12:00,
2013-04-18 09:17:00,73.5,65.6,29.67,SSW,207,13.0,22.0,76,0.00,,,0.00,WUHU216DAVISVP2,2013-04-18 14:17:00,
2013-04-18 09:22:00,73.5,65.6,29.67,SW,215,17.0,25.0,76,0.00,,,0.00,WUHU216DAVISVP2,2013-04-18 14:22:00,
2013-04-18 09:27:00,73.5,65.6,29.68,SW,219,18.0,25.0,76,0.00,,,0.00,WUHU216DAVISVP2,2013-04-18 14:27:00,
2013-04-18 09:32:00,73.6,65.7,29.68,South,169,11.0,24.0,76,0.00,,,0.00,WUHU216DAVISVP2,2013-04-18 14:32:00,
2013-04-18 09:37:00,73.5,65.2,29.68,SW,218,19.0,26.0,75,0.00,,,0.00,WUHU216DAVISVP2,2013-04-18 14:37:00,
2013-04-18 09:42:00,73.5,65.2,29.68,South,185,13.0,28.0,75,0.00,,,0.00,WUHU216DAVISVP2,2013-04-18 14:42:00,
2013-04-18 09:47:00,73.5,65.2,29.67,SW,223,21.0,28.0,75,0.00,,,0.00,WUHU216DAVISVP2,2013-04-18 14:47:00,
2013-04-18 09:52:00,73.4,65.1,29.68,SSW,206,14.0,24.0,75,0.00,,,0.00,WUHU216DAVISVP2,2013-04-18 14:52:00,
2013-04-18 09:57:00,73.4,64.8,29.67,South,186,16.0,25.0,74,0.00,,,0.00,WUHU216DAVISVP2,2013-04-18 14:57:00,
2013-04-18 10:02:00,73.4,65.1,29.67,South,178,23.0,25.0,75,0.00,,,0.00,WUHU216DAVISVP2,2013-04-18 15:02:00,
2013-04-18 10:07:00,73.4,65.1,29.67,SSE,158,15.0,24.0,75,0.00,,,0.00,WUHU216DAVISVP2,2013-04-18 15:07:00,
2013-04-18 10:12:00,73.5,65.2,29.67,SSW,208,16.0,24.0,75,0.00,,,0.00,WUHU216DAVISVP2,2013-04-18 15:12:00,
2013-04-18 10:17:00,73.5,65.2,29.67,SSW,193,17.0,23.0,75,0.00,,,0.00,WUHU216DAVISVP2,2013-04-18 15:17:00,
2013-04-18 10:22:00,73.5,64.9,29.67,SSW,193,18.0,23.0,74,0.00,,,0.00,WUHU216DAVISVP2,2013-04-18 15:22:00,
2013-04-18 10:27:00,73.6,65.0,29.67,SSW,198,11.0,24.0,74,0.00,,,0.00,WUHU216DAVISVP2,2013-04-18 15:27:00,
2013-04-18 10:32:00,73.6,65.0,29.67,SSW,202,19.0,29.0,74,0.00,,,0.00,WUHU216DAVISVP2,2013-04-18 15:32:00,
2013-04-18 10:37:00,73.8,64.8,29.67,SSW,211,17.0,29.0,73,0.00,,,0.00,WUHU216DAVISVP2,2013-04-18 15:37:00,
2013-04-18 10:42:00,73.8,64.6,29.67,SSE,167,16.0,25.0,73,0.00,,,0.00,WUHU216DAVISVP2,2013-04-18 15:42:00,
2013-04-18 10:47:00,73.8,64.8,29.67,SSW,203,20.0,26.0,73,0.00,,,0.00,WUHU216DAVISVP2,2013-04-18 15:47:00,
2013-04-18 10:52:00,73.8,64.4,29.67,SSW,205,18.0,26.0,72,0.00,,,0.00,WUHU216DAVISVP2,2013-04-18 15:52:00,
2013-04-18 10:57:00,73.7,64.7,29.67,South,186,19.0,24.0,73,0.00,,,0.00,WUHU216DAVISVP2,2013-04-18 15:57:00,
2013-04-18 11:02:00,73.8,64.4,29.67,SSE,167,23.0,30.0,72,0.00,,,0.00,WUHU216DAVISVP2,2013-04-18 16:02:00,
2013-04-18 11:07:00,74.0,64.6,29.67,South,179,22.0,30.0,72,0.00,,,0.00,WUHU216DAVISVP2,2013-04-18 16:07:00,
2013-04-18 11:12:00,73.9,64.5,29.67,SW,217,18.0,28.0,72,0.00,,,0.00,WUHU216DAVISVP2,2013-04-18 16:12:00,
2013-04-18 11:17:00,73.9,64.3,29.67,SSW,199,25.0,26.0,72,0.00,,,0.00,WUHU216DAVISVP2,2013-04-18 16:17:00,
2013-04-18 11:22:00,73.8,64.4,29.66,SSW,192,20.0,26.0,72,0.00,,,0.00,WUHU216DAVISVP2,2013-04-18 16:22:00,
2013-04-18 11:27:00,74.0,64.4,29.66,South,189,17.0,27.0,72,0.00,,,0.00,WUHU216DAVISVP2,2013-04-18 16:27:00,
2013-04-18 11:32:00,74.1,64.5,29.66,SSW,210,13.0,27.0,72,0.00,,,0.00,WUHU216DAVISVP2,2013-04-18 16:32:00,
2013-04-18 11:37:00,74.0,64.6,29.66,SSW,198,26.0,29.0,72,0.00,,,0.00,WUHU216DAVISVP2,2013-04-18 16:37:00,
2013-04-18 11:42:00,74.0,64.2,29.66,South,176,15.0,31.0,71,0.00,,,0.00,WUHU216DAVISVP2,2013-04-18 16:42:00,
2013-04-18 11:47:00,73.9,63.9,29.66,SSW,196,23.0,33.0,71,0.00,,,0.00,WUHU216DAVISVP2,2013-04-18 16:47:00,
2013-04-18 11:52:00,73.9,63.9,29.65,South,191,17.0,33.0,71,0.00,,,0.00,WUHU216DAVISVP2,2013-04-18 16:52:00,
2013-04-18 11:57:00,74.0,64.0,29.65,South,186,18.0,29.0,71,0.00,,,0.00,WUHU216DAVISVP2,2013-04-18 16:57:00,
2013-04-18 12:02:00,73.9,63.9,29.65,SSE,166,31.0,31.0,71,0.00,,,0.00,WUHU216DAVISVP2,2013-04-18 17:02:00,
2013-04-18 12:07:00,73.8,63.8,29.65,SSW,206,28.0,31.0,71,0.00,,,0.00,WUHU216DAVISVP2,2013-04-18 17:07:00,
2013-04-18 12:12:00,73.8,63.8,29.65,SSW,199,16.0,28.0,71,0.00,,,0.00,WUHU216DAVISVP2,2013-04-18 17:12:00,
2013-04-18 12:17:00,73.6,64.0,29.64,South,169,15.0,25.0,72,0.00,,,0.00,WUHU216DAVISVP2,2013-04-18 17:17:00,
2013-04-18 12:22:00,73.4,64.2,29.65,SSW,199,17.0,24.0,73,0.00,,,0.00,WUHU216DAVISVP2,2013-04-18 17:22:00,
2013-04-18 12:27:00,73.1,64.3,29.64,South,184,13.0,22.0,74,0.00,,,0.00,WUHU216DAVISVP2,2013-04-18 17:27:00,
2013-04-18 12:32:00,73.1,63.9,29.64,South,191,22.0,22.0,73,0.00,,,0.00,WUHU216DAVISVP2,2013-04-18 17:32:00,
2013-04-18 12:37:00,73.4,64.2,29.64,SSW,193,12.0,26.0,73,0.00,,,0.00,WUHU216DAVISVP2,2013-04-18 17:37:00,
2013-04-18 12:42:00,73.8,64.2,29.64,SSW,199,23.0,29.0,72,0.00,,,0.00,WUHU216DAVISVP2,2013-04-18 17:42:00,
2013-04-18 12:47:00,74.0,64.4,29.64,SSW,204,30.0,30.0,72,0.00,,,0.00,WUHU216DAVISVP2,2013-04-18 17:47:00,
2013-04-18 12:52:00,74.1,64.3,29.64,SSW,198,20.0,30.0,71,0.00,,,0.00,WUHU216DAVISVP2,2013-04-18 17:52:00,
2013-04-18 12:57:00,74.2,64.2,29.64,South,181,17.0,28.0,71,0.00,,,0.00,WUHU216DAVISVP2,2013-04-18 17:57:00,
2013-04-18 13:02:00,74.3,64.3,29.64,SSW,198,16.0,28.0,71,0.00,,,0.00,WUHU216DAVISVP2,2013-04-18 18:02:00,
2013-04-18 13:07:00,74.1,64.1,29.64,SSW,196,13.0,26.0,71,0.00,,,0.00,WUHU216DAVISVP2,2013-04-18 18:07:00,
2013-04-18 13:12:00,73.9,64.7,29.65,SW,224,9.0,22.0,73,0.00,,,0.00,WUHU216DAVISVP2,2013-04-18 18:12:00,
2013-04-18 13:17:00,72.1,63.0,29.67,WSW,238,10.0,25.0,73,0.00,,,0.00,WUHU216DAVISVP2,2013-04-18 18:17:00,
2013-04-18 13:22:00,68.6,62.2,29.66,West,278,7.0,25.0,80,0.02,,,0.02,WUHU216DAVISVP2,2013-04-18 18:22:00,
2013-04-18 13:27:00,66.2,61.6,29.66,SSW,203,16.0,20.0,85,0.06,,,0.07,WUHU216DAVISVP2,2013-04-18 18:27:00,
2013-04-18 13:32:00,65.1,61.5,29.66,West,266,8.0,20.0,88,0.10,,,0.10,WUHU216DAVISVP2,2013-04-18 18:32:00,
2013-04-18 13:37:00,64.6,61.6,29.66,West,278,5.0,19.0,90,0.13,,,0.13,WUHU216DAVISVP2,2013-04-18 18:37:00,
2013-04-18 13:42:00,64.3,61.3,29.65,WSW,251,15.0,19.0,90,0.16,,,0.16,WUHU216DAVISVP2,2013-04-18 18:42:00,
2013-04-18 13:47:00,64.4,61.1,29.65,SW,235,10.0,22.0,89,0.19,,,0.19,WUHU216DAVISVP2,2013-04-18 18:47:00,
2013-04-18 13:52:00,64.2,61.5,29.67,SSW,205,6.0,22.0,91,0.24,,,0.24,WUHU216DAVISVP2,2013-04-18 18:52:00,
2013-04-18 13:57:00,63.9,61.2,29.66,WSW,248,13.0,20.0,91,0.36,,,0.36,WUHU216DAVISVP2,2013-04-18 18:57:00,
2013-04-18 14:02:00,63.6,61.2,29.66,SW,226,16.0,20.0,92,0.48,,,0.49,WUHU216DAVISVP2,2013-04-18 19:02:00,
2013-04-18 14:07:00,63.3,61.2,29.65,SW,228,7.0,20.0,93,0.56,,,0.56,WUHU216DAVISVP2,2013-04-18 19:07:00,
2013-04-18 14:12:00,63.4,61.3,29.65,SSW,198,6.0,15.0,93,0.57,,,0.57,WUHU216DAVISVP2,2013-04-18 19:12:00,
2013-04-18 14:17:00,63.5,61.4,29.65,SW,224,14.0,14.0,93,0.58,,,0.58,WUHU216DAVISVP2,2013-04-18 19:17:00,
2013-04-18 14:22:00,63.7,61.3,29.65,South,185,9.0,14.0,92,0.56,,,0.59,WUHU216DAVISVP2,2013-04-18 19:22:00,
2013-04-18 14:27:00,63.8,61.4,29.65,SSW,195,10.0,12.0,92,0.52,,,0.60,WUHU216DAVISVP2,2013-04-18 19:27:00,
2013-04-18 14:32:00,64.0,61.9,29.65,SSE,168,7.0,12.0,93,0.51,,,0.61,WUHU216DAVISVP2,2013-04-18 19:32:00,
2013-04-18 14:37:00,64.0,61.9,29.65,SSW,207,11.0,12.0,93,0.49,,,0.63,WUHU216DAVISVP2,2013-04-18 19:37:00,
2013-04-18 14:42:00,64.1,62.0,29.65,SSW,200,8.0,11.0,93,0.49,,,0.65,WUHU216DAVISVP2,2013-04-18 19:42:00,
2013-04-18 14:47:00,64.1,62.3,29.65,SSW,195,11.0,11.0,94,0.48,,,0.68,WUHU216DAVISVP2,2013-04-18 19:47:00,
2013-04-18 14:52:00,64.2,62.4,29.65,South,190,8.0,12.0,94,0.45,,,0.70,WUHU216DAVISVP2,2013-04-18 19:52:00,
2013-04-18 14:58:00,64.3,62.5,29.64,South,189,9.0,14.0,94,0.35,,,0.73,WUHU216DAVISVP2,2013-04-18 19:58:00,
2013-04-18 15:03:00,64.3,62.5,29.64,SSW,203,9.0,14.0,94,0.24,,,0.75,WUHU216DAVISVP2,2013-04-18 20:03:00,
2013-04-18 15:08:00,64.2,62.4,29.64,South,176,6.0,12.0,94,0.22,,,0.78,WUHU216DAVISVP2,2013-04-18 20:08:00,
2013-04-18 15:13:00,64.2,62.4,29.64,South,191,4.0,13.0,94,0.23,,,0.80,WUHU216DAVISVP2,2013-04-18 20:13:00,
2013-04-18 15:18:00,64.2,62.4,29.64,South,174,6.0,15.0,94,0.25,,,0.83,WUHU216DAVISVP2,2013-04-18 20:18:00,
2013-04-18 15:23:00,64.2,62.4,29.63,South,179,7.0,15.0,94,0.25,,,0.84,WUHU216DAVISVP2,2013-04-18 20:23:00,
2013-04-18 15:29:00,64.1,62.3,29.63,South,172,9.0,13.0,94,0.27,,,0.87,WUHU216DAVISVP2,2013-04-18 20:29:00,
2013-04-18 15:34:00,64.0,62.2,29.63,SSW,195,9.0,11.0,94,0.26,,,0.88,WUHU216DAVISVP2,2013-04-18 20:34:00,
2013-04-18 15:39:00,64.0,62.2,29.63,SSE,168,9.0,13.0,94,0.26,,,0.89,WUHU216DAVISVP2,2013-04-18 20:39:00,
2013-04-18 15:44:00,63.9,62.1,29.63,SSW,197,13.0,13.0,94,0.24,,,0.90,WUHU216DAVISVP2,2013-04-18 20:44:00,
2013-04-18 15:49:00,63.9,62.1,29.64,South,190,14.0,14.0,94,0.22,,,0.91,WUHU216DAVISVP2,2013-04-18 20:49:00,
2013-04-18 15:54:00,64.0,62.2,29.62,SSW,195,8.0,14.0,94,0.23,,,0.94,WUHU216DAVISVP2,2013-04-18 20:54:00,
2013-04-18 15:59:00,63.9,61.8,29.62,South,187,11.0,14.0,93,0.22,,,0.95,WUHU216DAVISVP2,2013-04-18 20:59:00,
2013-04-18 16:04:00,63.8,62.0,29.62,South,173,8.0,13.0,94,0.20,,,0.97,WUHU216DAVISVP2,2013-04-18 21:04:00,
2013-04-18 16:09:00,63.8,62.0,29.61,South,188,8.0,13.0,94,0.20,,,0.99,WUHU216DAVISVP2,2013-04-18 21:09:00,
2013-04-18 16:14:00,63.8,62.0,29.61,SW,222,2.0,11.0,94,0.19,,,1.00,WUHU216DAVISVP2,2013-04-18 21:14:00,
2013-04-18 16:19:00,63.7,61.9,29.60,SSW,199,3.0,10.0,94,0.17,,,1.01,WUHU216DAVISVP2,2013-04-18 21:19:00,
2013-04-18 16:25:00,63.7,61.9,29.61,South,184,8.0,11.0,94,0.17,,,1.02,WUHU216DAVISVP2,2013-04-18 21:25:00,
2013-04-18 16:30:00,63.7,61.9,29.61,South,179,3.0,11.0,94,0.16,,,1.03,WUHU216DAVISVP2,2013-04-18 21:30:00,
2013-04-18 16:35:00,63.7,62.2,29.60,South,176,5.0,10.0,95,0.15,,,1.03,WUHU216DAVISVP2,2013-04-18 21:35:00,
2013-04-18 16:40:00,63.7,62.2,29.60,SE,145,4.0,8.0,95,0.14,,,1.03,WUHU216DAVISVP2,2013-04-18 21:40:00,
2013-04-18 16:45:00,63.7,62.2,29.60,SSE,158,3.0,9.0,95,0.13,,,1.03,WUHU216DAVISVP2,2013-04-18 21:45:00,
2013-04-18 16:50:00,63.6,62.1,29.60,SSE,155,3.0,9.0,95,0.13,,,1.04,WUHU216DAVISVP2,2013-04-18 21:50:00,
2013-04-18 16:55:00,63.6,62.1,29.59,SE,129,4.0,7.0,95,0.10,,,1.04,WUHU216DAVISVP2,2013-04-18 21:55:00,
2013-04-18 17:00:00,63.6,62.1,29.59,SSE,153,0.0,6.0,95,0.09,,,1.05,WUHU216DAVISVP2,2013-04-18 22:00:00,
2013-04-18 17:05:00,63.5,62.0,29.59,SE,146,1.0,5.0,95,0.08,,,1.06,WUHU216DAVISVP2,2013-04-18 22:05:00,
2013-04-18 17:11:00,63.5,62.0,29.60,South,180,4.0,7.0,95,0.08,,,1.07,WUHU216DAVISVP2,2013-04-18 22:11:00,
2013-04-18 17:16:00,63.5,62.0,29.61,SSW,197,8.0,11.0,95,0.08,,,1.09,WUHU216DAVISVP2,2013-04-18 22:16:00,
2013-04-18 17:21:00,63.5,61.7,29.61,SSW,192,8.0,12.0,94,0.08,,,1.10,WUHU216DAVISVP2,2013-04-18 22:21:00,
2013-04-18 17:26:00,63.5,61.7,29.61,SSE,164,7.0,12.0,94,0.09,,,1.11,WUHU216DAVISVP2,2013-04-18 22:26:00,
2013-04-18 17:31:00,63.6,61.8,29.61,SW,215,10.0,12.0,94,0.08,,,1.11,WUHU216DAVISVP2,2013-04-18 22:31:00,
2013-04-18 17:36:00,63.6,61.8,29.61,SSW,209,7.0,10.0,94,0.09,,,1.12,WUHU216DAVISVP2,2013-04-18 22:36:00,
2013-04-18 17:41:00,63.6,62.1,29.61,South,171,5.0,11.0,95,0.10,,,1.13,WUHU216DAVISVP2,2013-04-18 22:41:00,
2013-04-18 17:46:00,63.6,62.1,29.61,South,191,4.0,11.0,95,0.12,,,1.15,WUHU216DAVISVP2,2013-04-18 22:46:00,
2013-04-18 17:51:00,62.8,61.3,29.64,West,269,7.0,16.0,95,0.13,,,1.17,WUHU216DAVISVP2,2013-04-18 22:51:00,
2013-04-18 17:56:00,59.1,55.2,29.64,West,273,7.0,16.0,87,0.19,,,1.23,WUHU216DAVISVP2,2013-04-18 22:56:00,
2013-04-18 18:01:00,57.4,54.8,29.65,West,272,8.0,17.0,91,0.22,,,1.27,WUHU216DAVISVP2,2013-04-18 23:01:00,
2013-04-18 18:06:00,56.6,54.3,29.67,West,265,13.0,17.0,92,0.23,,,1.30,WUHU216DAVISVP2,2013-04-18 23:06:00,
2013-04-18 18:11:00,55.9,53.9,29.66,WSW,257,14.0,17.0,93,0.25,,,1.33,WUHU216DAVISVP2,2013-04-18 23:11:00,
2013-04-18 18:16:00,55.5,53.8,29.65,NW,304,6.0,17.0,94,0.27,,,1.36,WUHU216DAVISVP2,2013-04-18 23:16:00,
2013-04-18 18:21:00,54.7,52.4,29.68,WNW,285,9.0,18.0,92,0.28,,,1.38,WUHU216DAVISVP2,2013-04-18 23:21:00,
2013-04-18 18:26:00,54.1,52.1,29.67,WNW,295,12.0,18.0,93,0.30,,,1.41,WUHU216DAVISVP2,2013-04-18 23:26:00,
2013-04-18 18:31:00,53.6,51.6,29.67,West,265,6.0,16.0,93,0.32,,,1.43,WUHU216DAVISVP2,2013-04-18 23:31:00,
2013-04-18 18:36:00,52.7,50.4,29.67,NW,319,4.0,16.0,92,0.32,,,1.44,WUHU216DAVISVP2,2013-04-18 23:36:00,
2013-04-18 18:41:00,51.9,49.3,29.68,NNW,327,5.0,13.0,91,0.32,,,1.45,WUHU216DAVISVP2,2013-04-18 23:41:00,
2013-04-18 18:46:00,51.3,48.7,29.69,West,271,10.0,14.0,91,0.31,,,1.46,WUHU216DAVISVP2,2013-04-18 23:46:00,
2013-04-18 18:51:00,50.7,48.1,29.70,NW,310,6.0,20.0,91,0.30,,,1.47,WUHU216DAVISVP2,2013-04-18 23:51:00,
2013-04-18 18:56:00,50.0,47.7,29.70,West,276,6.0,20.0,92,0.24,,,1.48,WUHU216DAVISVP2,2013-04-18 23:56:00,
2013-04-18 19:01:00,49.6,47.6,29.70,North,1,8.0,18.0,93,0.23,,,1.50,WUHU216DAVISVP2,2013-04-19 00:01:00,
2013-04-18 19:06:00,49.3,47.3,29.69,NNE,24,6.0,12.0,93,0.22,,,1.52,WUHU216DAVISVP2,2013-04-19 00:06:00,
2013-04-18 19:11:00,49.0,46.7,29.70,WNW,283,12.0,17.0,92,0.20,,,1.53,WUHU216DAVISVP2,2013-04-19 00:11:00,
2013-04-18 19:16:00,48.8,46.5,29.70,NW,326,7.0,19.0,92,0.19,,,1.55,WUHU216DAVISVP2,2013-04-19 00:16:00,
2013-04-18 19:21:00,48.5,46.2,29.70,NW,312,8.0,19.0,92,0.18,,,1.57,WUHU216DAVISVP2,2013-04-19 00:21:00,
2013-04-18 19:26:00,48.3,46.3,29.69,West,279,10.0,19.0,93,0.17,,,1.58,WUHU216DAVISVP2,2013-04-19 00:26:00,
2013-04-18 19:31:00,48.0,46.0,29.69,WNW,283,11.0,13.0,93,0.17,,,1.60,WUHU216DAVISVP2,2013-04-19 00:31:00,
2013-04-18 19:36:00,47.7,45.4,29.67,NW,320,3.0,15.0,92,0.17,,,1.62,WUHU216DAVISVP2,2013-04-19 00:36:00,
2013-04-18 19:41:00,47.5,45.5,29.68,WNW,286,5.0,15.0,93,0.19,,,1.64,WUHU216DAVISVP2,2013-04-19 00:41:00,
2013-04-18 19:46:00,47.4,45.4,29.69,WNW,288,11.0,15.0,93,0.20,,,1.66,WUHU216DAVISVP2,2013-04-19 00:46:00,
2013-04-18 19:51:00,47.2,45.6,29.69,West,273,8.0,15.0,94,0.20,,,1.67,WUHU216DAVISVP2,2013-04-19 00:51:00,
2013-04-18 19:56:00,47.1,45.5,29.70,West,273,8.0,16.0,94,0.21,,,1.69,WUHU216DAVISVP2,2013-04-19 00:56:00,
2013-04-18 20:01:00,47.2,45.6,29.70,WNW,288,6.0,16.0,94,0.21,,,1.71,WUHU216DAVISVP2,2013-04-19 01:01:00,
2013-04-18 20:06:00,47.1,45.5,29.70,NW,326,6.0,11.0,94,0.22,,,1.74,WUHU216DAVISVP2,2013-04-19 01:06:00,
2013-04-18 20:11:00,47.0,45.3,29.71,WNW,290,6.0,11.0,94,0.23,,,1.76,WUHU216DAVISVP2,2013-04-19 01:11:00,
2013-04-18 20:16:00,46.9,45.2,29.70,West,270,7.0,13.0,94,0.24,,,1.79,WUHU216DAVISVP2,2013-04-19 01:16:00,
2013-04-18 20:21:00,46.8,45.1,29.72,WNW,292,7.0,14.0,94,0.23,,,1.80,WUHU216DAVISVP2,2013-04-19 01:21:00,
2013-04-18 20:26:00,46.7,45.0,29.72,WNW,285,5.0,14.0,94,0.24,,,1.82,WUHU216DAVISVP2,2013-04-19 01:26:00,
2013-04-18 20:31:00,46.5,44.8,29.70,North,356,7.0,13.0,94,0.24,,,1.84,WUHU216DAVISVP2,2013-04-19 01:31:00,
2013-04-18 20:36:00,46.3,44.3,29.70,NNW,329,8.0,13.0,93,0.24,,,1.86,WUHU216DAVISVP2,2013-04-19 01:36:00,
2013-04-18 20:41:00,46.0,43.8,29.70,NW,310,10.0,14.0,92,0.23,,,1.87,WUHU216DAVISVP2,2013-04-19 01:41:00,
2013-04-18 20:46:00,45.9,43.7,29.71,WNW,299,3.0,14.0,92,0.21,,,1.87,WUHU216DAVISVP2,2013-04-19 01:46:00,
2013-04-18 20:51:00,45.8,43.6,29.71,West,261,4.0,11.0,92,0.21,,,1.88,WUHU216DAVISVP2,2013-04-19 01:51:00,
2013-04-18 20:56:00,45.8,43.6,29.73,WNW,293,5.0,12.0,92,0.20,,,1.89,WUHU216DAVISVP2,2013-04-19 01:56:00,
2013-04-18 21:01:00,45.8,43.8,29.75,West,276,4.0,13.0,93,0.20,,,1.91,WUHU216DAVISVP2,2013-04-19 02:01:00,
2013-04-18 21:06:00,45.8,43.8,29.76,WNW,285,7.0,13.0,93,0.19,,,1.93,WUHU216DAVISVP2,2013-04-19 02:06:00,
2013-04-18 21:11:00,45.7,43.7,29.76,WNW,297,9.0,11.0,93,0.19,,,1.95,WUHU216DAVISVP2,2013-04-19 02:11:00,
2013-04-18 21:16:00,45.6,43.6,29.75,West,263,10.0,13.0,93,0.17,,,1.96,WUHU216DAVISVP2,2013-04-19 02:16:00,
2013-04-18 21:21:00,45.6,43.6,29.74,NNW,342,3.0,13.0,93,0.18,,,1.98,WUHU216DAVISVP2,2013-04-19 02:21:00,
2013-04-18 21:26:00,45.5,43.5,29.73,NW,304,6.0,9.0,93,0.17,,,1.99,WUHU216DAVISVP2,2013-04-19 02:26:00,
2013-04-18 21:31:00,45.4,43.2,29.71,NW,309,4.0,11.0,92,0.16,,,2.01,WUHU216DAVISVP2,2013-04-19 02:31:00,
2013-04-18 21:36:00,45.2,43.0,29.71,NW,324,4.0,15.0,92,0.17,,,2.03,WUHU216DAVISVP2,2013-04-19 02:36:00,
2013-04-18 21:41:00,45.2,43.0,29.70,NW,310,9.0,15.0,92,0.17,,,2.04,WUHU216DAVISVP2,2013-04-19 02:41:00,
2013-04-18 21:46:00,45.2,43.0,29.71,North,354,3.0,10.0,92,0.16,,,2.04,WUHU216DAVISVP2,2013-04-19 02:46:00,
2013-04-18 21:51:00,45.2,43.0,29.70,NW,321,5.0,12.0,92,0.16,,,2.04,WUHU216DAVISVP2,2013-04-19 02:51:00,
2013-04-18 21:56:00,45.2,43.0,29.70,NW,307,5.0,12.0,92,0.15,,,2.04,WUHU216DAVISVP2,2013-04-19 02:56:00,
2013-04-18 22:01:00,45.1,42.9,29.70,WNW,283,8.0,14.0,92,0.14,,,2.05,WUHU216DAVISVP2,2013-04-19 03:01:00,
2013-04-18 22:06:00,45.2,43.0,29.73,WNW,299,7.0,14.0,92,0.12,,,2.05,WUHU216DAVISVP2,2013-04-19 03:06:00,
2013-04-18 22:11:00,45.2,42.7,29.72,WNW,288,6.0,12.0,91,0.10,,,2.05,WUHU216DAVISVP2,2013-04-19 03:11:00,
2013-04-18 22:16:00,45.1,42.3,29.72,NNE,30,5.0,14.0,90,0.08,,,2.05,WUHU216DAVISVP2,2013-04-19 03:16:00,
2013-04-18 22:21:00,45.2,42.1,29.72,WNW,302,7.0,14.0,89,0.07,,,2.05,WUHU216DAVISVP2,2013-04-19 03:21:00,
2013-04-18 22:26:00,45.2,42.1,29.72,NW,325,3.0,15.0,89,0.06,,,2.05,WUHU216DAVISVP2,2013-04-19 03:26:00,
2013-04-18 22:31:00,45.1,41.4,29.70,NNW,340,4.0,15.0,87,0.04,,,2.05,WUHU216DAVISVP2,2013-04-19 03:31:00,
2013-04-18 22:36:00,45.1,41.1,29.71,NNW,334,6.0,18.0,86,0.02,,,2.05,WUHU216DAVISVP2,2013-04-19 03:36:00,
2013-04-18 22:41:00,45.1,41.1,29.70,NNW,335,7.0,18.0,86,0.01,,,2.05,WUHU216DAVISVP2,2013-04-19 03:41:00,
2013-04-18 22:46:00,45.0,40.7,29.70,West,277,3.0,17.0,85,0.01,,,2.05,WUHU216DAVISVP2,2013-04-19 03:46:00,
2013-04-18 22:51:00,44.9,40.7,29.71,WNW,303,7.0,17.0,85,0.01,,,2.05,WUHU216DAVISVP2,2013-04-19 03:51:00,
2013-04-18 22:56:00,44.8,40.0,29.71,WNW,286,8.0,15.0,83,0.01,,,2.05,WUHU216DAVISVP2,2013-04-19 03:56:00,
2013-04-18 23:01:00,44.7,39.2,29.72,West,281,9.0,17.0,81,0.00,,,2.05,WUHU216DAVISVP2,2013-04-19 04:01:00,
2013-04-18 23:06:00,44.6,39.1,29.73,WNW,293,8.0,19.0,81,0.00,,,2.05,WUHU216DAVISVP2,2013-04-19 04:06:00,
2013-04-18 23:11:00,44.6,39.5,29.73,WNW,286,13.0,19.0,82,0.00,,,2.05,WUHU216DAVISVP2,2013-04-19 04:11:00,
2013-04-18 23:16:00,44.4,39.0,29.73,WNW,302,12.0,19.0,81,0.00,,,2.05,WUHU216DAVISVP2,2013-04-19 04:16:00,
2013-04-18 23:21:00,44.3,38.2,29.73,WNW,301,4.0,21.0,79,0.00,,,2.05,WUHU216DAVISVP2,2013-04-19 04:21:00,
2013-04-18 23:26:00,44.1,37.4,29.73,NW,309,5.0,21.0,77,0.00,,,2.05,WUHU216DAVISVP2,2013-04-19 04:26:00,
2013-04-18 23:31:00,43.9,36.9,29.73,NW,307,8.0,13.0,76,0.00,,,2.05,WUHU216DAVISVP2,2013-04-19 04:31:00,
2013-04-18 23:36:00,43.8,36.4,29.73,WNW,286,5.0,15.0,75,0.00,,,2.05,WUHU216DAVISVP2,2013-04-19 04:36:00,
2013-04-18 23:41:00,43.6,36.9,29.73,NW,306,6.0,15.0,77,0.00,,,2.05,WUHU216DAVISVP2,2013-04-19 04:41:00,
2013-04-18 23:46:00,43.4,36.7,29.73,NNW,337,3.0,11.0,77,0.00,,,2.05,WUHU216DAVISVP2,2013-04-19 04:46:00,
2013-04-18 23:51:00,43.3,37.3,29.73,West,277,3.0,9.0,79,0.00,,,2.05,WUHU216DAVISVP2,2013-04-19 04:51:00,
2013-04-18 23:56:00,43.4,37.0,29.73,West,279,6.0,16.0,78,0.00,,,2.05,WUHU216DAVISVP2,2013-04-19 04:56:00,